Location: Unspecified
(58.9933°N, 5.6375°E)
Time: 21:39:33
(UTC+01:00)

Cosmos 1674 - Visible Passes

Search period start: 22 December 2014 00:00
Search period end: 01 January 2015 00:00
Orbit: 510 x 538 km, 82.5° (Epoch: 22 December)

Date Brightness Start Highest point End Pass type
(mag) Time Alt. Az. Time Alt. Az. Time Alt. Az.
22 Dec 5.4 07:02:41 10° NNE 07:04:56 15° NE 07:07:10 10° E visible
23 Dec 5.5 06:50:32 10° NNE 06:52:35 14° NE 06:54:38 10° E visible
23 Dec 3.0 08:25:22 10° N 08:29:14 72° ENE 08:33:06 10° SSE visible
24 Dec 5.5 06:38:22 10° NNE 06:40:12 13° NE 06:42:03 10° E visible
24 Dec 3.1 08:13:03 10° N 08:16:55 66° ENE 08:20:46 10° SSE visible
25 Dec 5.6 06:26:13 10° NNE 06:27:48 12° NE 06:29:24 10° ENE visible
25 Dec 3.3 08:00:44 10° N 08:04:34 60° ENE 08:08:25 10° SSE visible
26 Dec 5.7 06:14:05 10° NNE 06:15:23 11° NE 06:16:41 10° ENE visible
26 Dec 3.4 07:48:23 10° N 07:52:12 54° ENE 07:56:01 10° SSE visible
27 Dec 5.8 06:02:03 10° NE 06:02:56 11° NE 06:03:49 10° ENE visible
27 Dec 3.6 07:36:01 10° N 07:39:49 50° ENE 07:43:36 10° SSE visible
28 Dec 3.8 07:23:38 10° N 07:27:24 45° ENE 07:31:10 10° SE visible
29 Dec 3.9 07:11:15 10° N 07:14:58 42° ENE 07:18:41 10° SE visible
30 Dec 4.1 06:58:50 10° N 07:02:30 38° ENE 07:06:10 10° SE visible
30 Dec 3.6 08:34:53 10° NNW 08:38:20 31° W 08:41:48 10° SSW visible
31 Dec 4.2 06:46:24 10° N 06:50:01 35° ENE 06:53:38 10° SE visible
31 Dec 3.5 08:22:22 10° NNW 08:25:55 34° W 08:29:27 10° SSW visible
